RH
78 36 17 13 10 14 16 16 39 56 68 74 85 92 52 33 16 13 21 33 35 39 37 33 27 23 28 27 23 10 13 13 9 7 6 6 13 19 20 22 19 15 9
37 13 12 12 25 32 26 28 57 69 80 91 92 92 63 22 19 26 24 27 27 30 32 30 21 9 6 4 4 5 7 8 8 6 5 5 8 13 17 22 25 18 14
14 12 12 28 43 51 51 53 69 80 86 69 79 92 73 87 57 22 15 14 11 7 5 5 4 4 4 4 4 4 6 5 4 4 4 4 7 25 25 21 23 27 20
14 12 27 40 54 64 68 69 75 88 61 14 11 14 23 32 26 14 12 10 8 7 6 6 6 5 5 5 4 4 3 3 3 3 3 4 9 21 32 30 24 22 28
14 15 34 50 64 72 82 85 80 86 28 9 14 17 17 16 14 12 10 8 8 6 6 6 6 6 6 6 6 5 5 4 3 3 3 4 6 16 38 30 23 21 23
15 11 24 61 67 73 84 89 84 59 13 10 16 18 17 17 15 12 10 9 8 8 7 7 7 8 8 7 6 6 6 6 5 5 4 6 26 38 46 30 22 23 16
13 14 41 62 67 72 80 81 43 14 10 13 17 17 14 13 12 11 10 10 9 10 10 10 10 10 9 9 10 10 11 11 10 11 27 27 40 78 66 56 35 36 36
13 17 60 70 72 81 52 12 12 11 12 12 13 14 12 12 12 12 11 11 11 11 11 10 10 11 12 15 18 21 22 29 24 23 30 69 70 94 98 87 84 53 58
17 18 70 80 82 78 68 10 11 13 13 13 14 12 12 12 13 13 13 12 12 12 12 12 11 12 20 21 31 39 43 50 55 47 50 61 85 100 100 100 100 100 70
19 18 77 92 89 80 67 10 13 14 15 15 13 14 14 14 14 15 14 14 13 12 11 10 12 17 28 44 65 68 66 67 63 60 68 71 84 100 100 100 100 100 100
19 24 59 100 100 95 71 11 14 14 14 14 15 16 16 17 17 18 18 16 15 14 12 13 22 38 54 61 65 70 67 68 67 67 65 81 79 97 100 100 100 100 100
47 67 96 100 100 99 52 13 14 13 14 16 17 18 19 20 22 22 20 19 17 15 18 30 50 65 65 67 70 78 83 80 77 76 76 78 89 96 100 99 100 100 100
76 91 100 100 100 95 23 14 14 14 16 19 20 22 24 24 25 24 22 21 19 19 27 43 56 61 67 72 79 81 82 92 90 83 83 85 89 95 100 100 96 100 100
87 97 100 100 100 50 17 16 14 16 18 22 23 26 27 27 26 25 24 22 21 22 31 43 51 58 65 71 71 77 83 87 91 90 80 78 86 96 96 100 100 98 97
88 98 95 100 94 31 18 16 16 18 21 23 26 28 32 31 27 27 26 26 27 30 36 45 51 59 67 71 72 70 67 69 70 70 71 68 68 71 86 94 98 100 100
94 97 100 99 50 22 19 18 21 21 22 26 30 35 37 36 34 33 33 35 38 42 46 53 58 61 63 63 62 63 63 60 54 52 52 52 51 53 59 66 90 92 99
100 100 97 44 26 23 22 26 24 22 27 34 41 42 44 44 42 40 43 47 52 53 51 53 54 52 50 49 46 44 45 46 48 50 51 49 45 41 40 44 50 62 83
100 100 78 35 26 25 31 31 25 28 37 48 50 47 49 51 51 53 58 65 70 70 66 56 54 55 54 53 50 46 44 42 38 36 35 33 36 38 38 36 36 37 40
100 99 60 29 27 35 37 29 27 37 46 51 52 54 60 62 62 66 78 82 75 68 58 60 67 72 72 70 67 64 62 59 55 51 44 35 28 24 23 24 27 29 30
100 69 33 30 37 43 35 30 38 45 51 53 59 69 74 74 74 84 90 83 77 58 60 72 80 80 75 70 62 50 36 24 17 15 15 17 21 28 34 35 30 23 20
86 43 32 36 48 42 36 45 54 64 65 72 86 92 94 89 93 96 90 86 64 62 72 79 78 70 46 20 12 11 10 10 10 10 10 10 10 10 10 9 8 8 11
66 33 37 53 49 37 37 72 81 79 85 94 99 100 100 100 99 96 94 67 64 72 76 76 58 21 13 13 13 13 14 15 15 14 14 14 14 13 13 13 13 12 12
41 41 56 52 42 45 90 93 78 88 98 100 100 100 100 98 100 99 80 67 72 76 77 57 19 15 16 16 18 18 18 17 17 17 16 15 14 13 13 13 13 14 14
46 53 50 48 70 93 91 73 88 100 100 100 100 100 100 100 100 92 72 74 79 81 64 24 17 18 21 22 22 22 21 20 18 17 16 17 18 20 23 26 26 25 23
53 53 55 84 98 82 78 98 100 99 100 100 100 100 100 100 93 80 78 82 84 72 31 19 20 23 26 26 24 22 20 19 18 19 26 33 36 36 35 34 32 30 28
56 60 97 94 82 97 100 98 97 99 98 99 100 100 100 90 84 83 86 86 79 40 21 23 26 30 31 28 25 22 21 22 28 40 45 43 40 38 37 35 32 30 28
Wind_Speed
46 43 42 45 45 42 38 34 33 34 35 34 30 27 26 27 24 23 23 20 17 17 21 25 27 29 31 31 33 35 35 35 30 27 29 32 39 42 37 44 46 48 54
39 38 41 43 40 36 32 33 32 30 30 30 26 24 24 24 22 21 21 20 18 19 22 26 27 27 28 28 30 33 34 36 35 33 31 29 34 37 42 39 44 47 48
34 37 41 38 34 31 32 32 31 27 29 27 25 25 24 22 21 20 19 17 18 19 19 20 22 22 24 27 30 33 36 36 33 35 35 33 31 36 38 40 43 47 50
33 36 35 31 29 31 33 32 31 28 28 28 26 23 21 20 18 17 16 17 18 18 19 21 23 25 27 29 30 32 35 37 38 37 37 38 36 35 38 41 43 46 50
33 33 32 31 31 35 36 34 32 28 27 26 22 18 17 16 17 17 18 19 21 22 23 24 26 28 29 31 33 33 33 36 38 40 39 38 41 39 39 42 45 48 50
32 34 32 32 34 36 35 31 29 28 26 22 19 17 18 18 20 22 23 24 25 26 26 28 29 31 33 34 35 35 35 36 37 39 39 36 39 42 39 41 41 40 47
31 32 31 32 34 34 29 27 28 27 24 20 19 18 19 21 22 23 24 26 28 31 32 32 34 35 35 36 36 36 36 36 35 34 36 34 35 38 37 37 38 40 45
29 30 30 31 31 31 30 29 28 24 20 18 18 18 20 22 23 25 27 29 30 32 33 35 36 37 38 38 37 37 37 37 35 32 31 32 31 34 36 36 36 39 40
29 30 29 28 28 30 30 29 25 21 19 19 17 19 21 22 24 26 28 30 32 33 34 36 39 40 40 41 40 38 37 35 35 35 34 32 30 33 36 36 38 41 42
31 31 29 28 29 30 30 27 23 20 19 17 17 18 20 23 25 27 30 33 35 37 38 40 40 39 38 36 36 35 34 32 32 32 33 34 33 27 31 36 38 39 42
31 30 30 28 29 30 30 26 22 21 18 16 17 19 21 23 26 28 31 33 35 38 39 40 38 35 32 34 35 34 33 32 31 30 30 31 33 33 22 32 38 43 43
29 28 28 26 27 28 28 25 21 20 17 17 19 21 23 25 28 30 32 34 36 37 36 36 35 33 32 32 32 31 31 30 29 29 29 30 29 32 30 22 31 40 44
28 28 24 25 27 27 27 24 21 20 18 19 21 23 26 28 30 32 33 34 35 35 34 33 34 35 34 32 31 30 28 27 26 26 27 28 29 29 32 30 28 30 38
27 25 24 26 27 26 26 24 21 21 21 21 23 26 29 31 32 33 34 34 35 35 34 33 34 35 35 34 32 30 29 28 27 26 25 27 28 28 30 32 33 32 29
27 25 24 27 25 26 25 23 21 22 22 23 25 28 31 32 33 34 34 35 35 35 35 35 34 34 33 33 32 31 30 30 29 28 27 27 28 28 29 30 32 35 35
25 23 25 24 24 25 24 21 21 22 22 25 28 31 32 33 34 35 35 36 36 37 37 38 38 37 36 35 34 33 32 32 32 32 31 30 30 30 30 30 32 33 34
23 23 21 22 24 23 21 21 22 23 24 27 30 32 33 34 35 36 37 38 39 40 42 43 43 42 40 39 38 38 37 36 36 35 35 35 34 34 34 34 34 34 36
23 23 21 23 23 21 20 21 22 25 27 30 32 33 35 36 37 37 39 40 43 45 47 45 43 41 40 39 39 38 39 38 39 39 40 40 40 40 40 39 39 39 39
23 22 22 23 21 20 22 23 24 27 30 32 34 35 36 37 38 39 41 44 48 50 48 45 43 41 39 39 38 38 38 38 38 38 39 41 43 45 46 46 46 46 46
23 22 23 21 21 22 23 24 27 29 33 35 36 37 38 39 41 42 45 48 51 50 47 45 42 40 40 40 40 40 40 38 37 37 38 39 41 43 46 47 49 51 53
23 24 22 21 22 23 24 27 29 32 35 36 38 39 40 42 43 45 48 51 52 49 46 44 43 43 42 39 36 34 33 33 33 33 34 35 37 38 40 42 44 47 50
26 24 22 23 23 25 26 29 32 35 37 38 39 40 42 42 44 47 50 53 49 47 45 44 44 40 36 35 35 33 33 34 36 38 39 40 42 43 45 47 48 49 50
25 24 23 24 25 26 29 32 34 37 39 39 40 42 43 44 45 48 53 50 48 46 45 45 40 37 37 35 35 36 37 38 40 42 44 46 48 49 50 51 53 54 55
24 24 24 25 27 29 32 34 37 38 39 40 43 44 44 44 48 53 50 48 47 45 46 41 38 37 35 37 39 40 41 43 45 46 46 45 45 45 45 45 46 47 49
24 24 25 27 29 31 33 36 38 39 40 43 44 43 44 48 51 49 48 46 45 46 42 39 37 37 37 39 41 42 43 45 45 44 43 42 42 42 43 44 45 46 47
24 25 28 29 30 33 35 37 39 40 42 44 44 44 47 48 47 47 45 44 45 43 39 38 37 37 39 41 42 43 44 44 43 42 41 41 42 42 43 44 44 45 46
Wind_Direction
301 301 304 308 308 305 302 303 303 306 309 312 307 303 304 301 296 288 280 275 272 276 282 284 288 283 283 277 278 278 282 285 282 279 277 267 253 251 255 245 240 237 232
299 306 307 307 304 301 303 302 307 311 315 318 311 303 303 304 300 293 288 285 289 290 289 286 284 282 280 278 275 275 282 284 284 282 278 272 263 253 251 246 240 237 235
303 304 306 305 301 306 306 304 307 309 310 313 314 303 305 303 302 298 293 300 304 300 297 299 296 296 295 293 290 287 283 280 284 282 281 277 265 258 253 249 240 240 238
300 304 303 305 307 310 310 306 302 304 307 310 309 305 303 301 303 305 312 313 312 312 311 311 310 309 306 303 298 297 297 294 287 283 280 275 270 256 253 250 247 240 240
298 301 300 302 308 307 305 303 298 301 305 308 307 308 308 311 311 312 314 315 314 314 313 311 310 309 307 305 303 301 301 299 296 289 280 272 268 260 253 251 247 245 242
300 300 295 296 302 309 304 299 296 299 304 303 302 305 310 315 319 320 319 317 313 311 310 309 308 307 307 306 303 301 301 300 299 295 286 268 259 261 256 246 244 248 246
303 300 292 292 297 308 305 299 297 298 298 298 302 308 314 318 317 316 316 315 315 315 313 311 309 307 305 303 302 300 299 297 294 292 283 275 260 248 245 244 243 246 248
302 301 291 291 297 299 299 300 295 296 292 294 298 308 313 314 318 318 318 317 312 312 312 311 309 306 302 300 298 296 293 292 292 290 275 278 269 248 239 242 242 245 244
299 298 290 288 294 299 299 300 294 291 289 291 302 311 316 318 318 318 317 316 316 313 310 307 305 302 300 298 293 290 286 284 282 281 280 279 273 266 249 240 238 239 233
297 289 284 285 289 296 299 297 291 288 285 292 305 313 316 317 316 318 320 319 317 314 312 310 308 304 299 295 292 288 285 282 277 275 275 272 276 273 259 245 229 230 227
295 286 281 283 288 291 297 293 287 284 285 296 303 309 311 313 315 317 317 317 316 316 316 313 309 303 300 299 296 291 290 287 283 280 279 274 267 273 263 246 240 230 224
293 291 284 284 290 292 294 288 284 283 286 296 300 305 309 312 312 313 314 315 316 316 314 310 307 308 306 302 300 295 289 285 283 281 279 277 273 264 270 261 238 240 233
294 288 281 288 293 292 291 286 284 281 286 292 298 305 308 308 309 311 312 313 313 313 312 306 304 303 304 305 301 297 293 287 282 280 276 276 274 273 264 263 269 243 240
296 285 283 288 291 290 289 287 282 281 285 294 300 304 306 307 309 310 312 312 312 313 311 306 304 303 303 302 300 298 295 293 289 283 279 275 273 273 271 266 258 261 261
293 285 283 287 285 289 288 285 280 280 288 297 300 304 306 308 309 311 311 311 312 312 311 308 304 303 301 299 297 294 292 290 288 285 279 275 273 271 271 270 268 260 253
291 285 284 281 287 289 287 280 280 286 293 299 302 304 306 308 309 309 310 312 313 313 311 308 304 302 300 299 297 296 294 292 288 287 285 281 276 272 268 265 266 266 264
292 286 277 286 290 288 282 280 285 290 296 301 303 305 307 308 308 310 312 313 313 312 310 307 303 300 298 296 294 293 290 288 286 284 283 281 278 275 272 268 264 262 262
290 280 279 290 290 284 282 286 287 292 300 303 305 306 307 307 308 309 310 312 312 312 311 309 306 302 299 297 295 292 290 287 284 280 278 277 277 276 274 272 269 266 262
289 281 286 290 285 282 284 287 291 296 299 302 303 304 305 305 306 307 310 311 313 314 313 310 308 305 303 300 297 295 292 289 286 283 279 277 275 273 272 271 270 269 267
286 287 290 284 280 282 286 291 294 298 300 301 302 303 304 304 305 308 310 311 315 315 313 311 309 307 305 302 299 297 295 293 290 287 284 281 278 275 273 271 269 268 266
288 290 284 278 281 284 288 292 295 298 299 300 301 303 304 304 306 308 309 313 315 314 313 312 311 309 308 305 303 301 298 296 294 291 289 287 284 282 279 277 274 272 270
289 283 278 280 281 284 288 292 296 299 300 301 303 304 305 306 306 308 311 315 314 314 313 313 313 311 308 306 303 302 300 298 297 295 292 290 288 285 282 280 278 275 273
281 277 277 278 283 288 293 296 297 300 301 302 303 305 305 305 306 308 314 314 314 313 313 314 311 309 308 306 303 302 301 300 298 297 295 293 290 287 284 282 279 278 276
274 275 278 284 288 293 296 297 299 300 301 302 304 305 305 305 307 311 312 313 313 313 314 311 309 308 306 305 305 304 303 302 301 299 297 295 292 289 287 285 283 280 279
275 279 284 289 294 297 296 298 299 301 302 304 305 305 304 306 310 311 312 312 312 313 311 309 308 308 307 308 307 307 306 306 304 302 299 297 294 292 290 288 286 284 282
281 284 290 294 295 296 297 300 302 303 304 305 305 305 307 309 311 311 311 312 313 312 308 307 308 308 310 310 310 309 309 308 305 303 301 299 298 296 294 292 290 288 286